(2009 DR3) |
Classification: Apollo [NEO, PHA] SPK-ID: 3447934 |
[ hide orbit diagram ]
For accurate long-term ephemerides, please instead use our Horizons system.This orbit viewer was implemented using two-body methods, and hence should not be used for determining accurate long-term trajectories (over several years or decades) or planetary encounter circumstances.
Orbital Elements at Epoch 2459000.5 (2020-May-31.0) TDB
Reference: JPL 37 (heliocentric ecliptic J2000)
Element | Value | Uncertainty (1-sigma) | Units |
e | .5604946591927984 | 6.756e-08 | |
a | 1.975873390260072 | 1.5545e-08 | au |
q | .8684069077781337 | 1.2756e-07 | au |
i | 4.080372653935796 | 9.5378e-06 | deg |
node | 344.6994410962308 | 1.6695e-05 | deg |
peri | 237.5151019022865 | 2.9292e-05 | deg |
M | 1.438103336527528 | 2.1398e-05 | deg |
tp | 2458996.447484461707 (2020-May-26.94748446) | 6.0251e-05 | TDB |
period | 1014.465064317308 2.78 | 1.1972e-05 3.278e-08 | d yr |
n | .3548668285016444 | 4.1879e-09 | deg/d |
Q | 3.08333987274201 | 2.4259e-08 | au |
|
| | Orbit Determination Parameters
Additional Information
|
[ show covariance matrix ]
Physical Parameter Table
Parameter |
Symbol |
Value |
Units |
Sigma |
Reference |
Notes |
absolute magnitude |
H |
21.5 |
|
n/a |
MPO160607 |
|
|
[ show close-approach data ]
|